Flag for U.S.A. Weather past 2 weeks in West Palm Beach, Florida, U.S.A.

Now
85 °F

Broken clouds.


Feels Like: 94 °F
Forecast: 79 / 88 °F
Wind: 9 mph from East

Location: Palm Beach International Airport

Current Time: Aug 29, 2015 at 5:30:46 PM

Latest Report: Aug 29, 2015 at 4:53 PM


Visibility: 10 mi

Pressure: 29.98 "Hg

Humidity: 75%

Dew point: 76 °F

Location of West Palm BeachLocation

Historic Weather in West Palm Beach — Graph

°F

West Palm Beach temperature yesterday

Maximum temperature yesterday: 87 °F (at 10:53 AM)
Minimum temperature yesterday: 74 °F (at 6:53 AM)
Average temperature yesterday: 80 °F

Past Weeks' High & Low Weather Summary

 TemperatureHumidityPressure
High92 °F (Aug 22, 12:53 PM)100% (Aug 27, 2:53 AM)30.11 "Hg (Aug 27, 2:53 AM)
Low73 °F (Aug 27, 4:53 PM)51% (Aug 22, 12:53 PM)29.88 "Hg (Aug 24, 7:53 PM)
Average83 °F77%30.00 "Hg
* Reported Aug 14 3:53 PM — Aug 29 3:53 PM, West Palm Beach, Weather by CustomWeather, © 2015

Note: Actual official high and low records may vary slightly from our data, if they occured in-between our weather recording intervals... More about our weather records

Advertising

West Palm Beach weather history for previous 24 hours

 ConditionsComfort  
Time TempWeatherWind HumidityBarometerVisibility
3:53 PM
Sat, Aug 29
87 °FBroken clouds.16 mph75%30.00 "Hg10 mi
2:53 PM88 °FThunderstorms. Broken clouds.16 mph75%30.01 "Hg10 mi
1:53 PM83 °FThunderstorms. Fog.23 mph79%30.06 "Hg5 mi
12:53 PM89 °FBroken clouds.16 mph70%30.06 "Hg10 mi
11:53 AM89 °FPartly sunny.13 mph68%30.06 "Hg10 mi
10:53 AM88 °FBroken clouds.16 mph73%30.05 "Hg10 mi
9:53 AM87 °FBroken clouds.13 mph72%30.05 "Hg10 mi
8:53 AM85 °FBroken clouds.14 mph77%30.05 "Hg10 mi
7:53 AM83 °FPartly cloudy.8 mph82%30.05 "Hg10 mi
6:53 AM82 °FPartly cloudy.9 mph82%30.03 "Hg10 mi
5:53 AM82 °FPassing clouds.10 mph82%30.02 "Hg10 mi
4:53 AM80 °FPartly cloudy.7 mph87%30.02 "Hg10 mi
3:53 AM82 °FPassing clouds.9 mph85%30.01 "Hg10 mi
2:53 AM82 °FPassing clouds.10 mph85%30.02 "Hg10 mi
1:53 AM81 °FPassing clouds.10 mph82%30.03 "Hg10 mi
12:53 AM81 °FPassing clouds.12 mph85%30.04 "Hg10 mi
11:53 PM
Fri, Aug 28
80 °FPassing clouds.8 mph85%30.07 "Hg10 mi
10:53 PM80 °FPassing clouds.No wind85%30.08 "Hg10 mi
9:53 PM79 °FPartly cloudy.3 mph88%30.08 "Hg10 mi
8:53 PM81 °FPartly cloudy.No wind79%30.05 "Hg10 mi
7:53 PM81 °FBroken clouds.8 mph79%30.02 "Hg10 mi
6:53 PM82 °FBroken clouds.10 mph74%30.02 "Hg10 mi
5:53 PM82 °FBroken clouds.8 mph74%30.00 "Hg10 mi
Weather by CustomWeather, © 2015

See weather overviewHow to use our weather pages